Theta_e
311 300 297 297 301 303 304 304 304 304 303 303 302 301 299 299 300 304 304 305 307 303 301 302 302 302 303 304 306 307 308 306 305 305 306 307 307 307 307 308 309 310 312 316 317 318 316 316 317 319 321 323 324 324 325 326 327 328 329 329 329 329 330 329 329 329 329 328 327 327 326 325 326 327 328 328 329 329 329 328 328 328 328 328 328 327
309 299 299 302 305 305 305 306 305 303 303 302 300 300 299 299 297 302 302 304 306 302 299 301 301 301 302 304 305 306 305 304 304 304 304 305 306 308 308 308 308 310 313 316 316 317 317 316 317 318 320 320 322 323 324 324 326 327 328 328 329 330 330 330 330 329 329 329 328 327 326 326 326 326 325 326 328 328 329 328 329 328 328 328 328 326
298 296 302 305 307 307 306 306 305 303 301 301 299 299 298 299 301 303 303 303 304 301 297 299 298 299 301 303 305 305 304 305 306 305 305 305 305 305 306 308 308 308 310 312 314 315 316 317 317 317 318 320 322 323 324 324 325 326 327 328 328 329 330 330 330 330 329 330 329 328 327 326 325 327 327 327 327 328 327 328 328 328 328 328 327 327
293 298 304 308 307 306 305 304 304 303 302 300 299 296 295 300 298 293 301 303 302 299 297 298 297 299 302 303 303 304 304 305 307 307 307 307 305 305 306 306 307 306 307 308 310 312 314 316 317 315 316 317 318 320 322 323 324 326 326 327 328 328 329 329 329 328 330 330 330 329 328 327 327 325 326 326 326 326 327 326 327 328 328 328 327 328
296 302 306 306 306 305 302 303 302 301 298 300 299 298 298 298 299 298 297 300 302 301 302 299 296 296 298 298 300 303 305 305 305 306 307 307 307 308 308 307 307 307 307 307 309 311 312 313 316 317 317 317 316 317 319 322 324 325 326 326 327 328 328 329 328 328 330 329 328 328 327 326 326 325 325 324 324 325 325 325 326 327 327 327 327 327
299 305 307 304 304 304 302 300 301 301 297 298 301 301 301 301 299 299 299 298 297 295 300 298 288 290 296 298 299 302 302 303 304 304 305 306 306 306 306 306 307 308 309 308 308 308 310 312 313 316 317 316 316 316 317 320 323 324 324 326 326 327 328 328 328 328 328 328 328 326 325 323 323 322 323 322 322 323 323 324 326 326 327 327 326 326
301 305 305 302 302 302 301 300 302 302 297 296 297 304 303 301 300 299 298 297 290 287 296 300 289 286 293 294 296 299 300 301 302 302 303 304 305 305 305 306 306 307 308 309 309 310 310 310 311 311 313 317 317 317 318 318 319 321 322 323 326 326 327 328 328 328 326 327 328 327 326 325 324 323 324 325 325 325 325 325 324 325 326 327 326 326
303 303 303 303 301 300 299 298 302 302 298 295 302 303 303 301 299 298 298 297 295 300 301 299 296 287 288 294 298 299 298 298 298 300 302 304 304 305 306 306 306 307 308 309 309 310 311 311 312 312 313 313 317 318 318 318 318 318 319 322 324 326 325 327 328 328 327 326 326 326 326 325 325 324 324 325 325 326 325 325 324 325 325 326 326 326
302 300 301 300 300 299 297 301 303 304 299 298 302 304 301 301 300 299 298 296 296 293 288 293 297 288 287 292 298 299 296 297 298 299 299 302 304 305 306 307 306 307 308 309 309 310 310 312 313 314 314 315 315 318 319 318 319 319 319 320 322 324 325 325 327 327 327 325 325 326 326 325 325 325 325 324 325 325 325 325 325 324 325 325 326 326
304 303 303 303 300 297 301 303 304 304 299 302 302 304 304 302 301 300 296 295 292 289 286 291 295 286 287 293 293 295 295 295 296 298 300 301 302 303 305 306 307 306 304 306 307 307 309 310 311 313 313 314 313 316 319 319 319 319 318 319 319 320 323 325 325 326 327 326 324 324 324 325 325 324 324 324 324 324 324 324 324 324 324 324 325 325
304 306 306 304 300 302 303 304 305 304 303 305 304 301 300 299 296 297 295 290 286 285 287 292 294 291 284 290 292 291 293 296 297 297 299 300 301 302 304 305 306 306 305 306 307 308 310 311 311 311 311 311 312 315 316 316 318 317 318 317 317 318 320 321 324 325 325 326 325 324 324 324 324 324 324 323 323 323 323 323 323 324 324 324 325 325
301 303 302 304 307 306 305 302 306 306 304 303 299 297 296 292 295 291 289 290 285 283 290 294 293 293 283 285 292 296 296 297 297 296 296 298 299 302 302 303 304 305 305 306 307 309 309 309 310 310 310 310 310 313 314 314 315 315 316 315 315 315 316 317 320 323 325 326 325 324 323 323 324 324 324 323 322 323 323 323 323 323 323 324 324 324
294 296 302 305 307 306 302 300 300 301 301 301 298 296 289 284 287 283 286 283 283 284 290 294 294 289 288 292 293 296 296 297 297 297 297 298 300 301 302 304 305 305 306 306 306 308 309 308 308 308 308 309 309 311 311 313 315 315 315 314 314 314 314 315 316 318 322 324 325 325 323 323 323 324 324 323 323 323 323 323 323 322 323 323 322 323
291 298 299 300 304 305 304 295 292 293 297 298 294 291 287 283 282 281 284 286 286 288 292 289 292 287 292 295 300 299 298 297 298 299 300 300 300 301 303 304 304 305 305 306 307 307 307 307 308 309 310 310 311 311 313 312 313 314 315 314 313 314 314 314 315 316 318 322 324 325 324 323 322 322 323 324 323 323 323 323 323 323 323 323 323 323
285 285 293 297 293 304 302 301 299 297 297 297 299 296 290 289 284 279 283 280 282 285 288 292 286 282 286 289 297 300 302 302 300 300 300 301 301 301 301 302 304 307 305 306 306 308 309 309 309 310 311 310 309 310 310 310 311 311 312 313 313 313 313 313 314 315 316 318 322 324 324 324 323 322 322 323 324 324 323 323 322 323 323 323 323 323
288 289 296 301 301 305 300 303 304 301 297 299 299 299 293 289 293 285 286 285 285 284 284 286 285 287 290 296 296 298 298 301 302 301 299 300 301 301 302 302 302 303 304 305 306 307 308 309 309 310 310 310 310 310 309 310 309 309 311 311 312 312 312 312 313 314 315 316 319 322 323 324 323 321 321 321 322 323 324 323 322 322 322 323 322 323
290 287 298 299 303 303 302 303 302 302 288 295 297 290 294 301 296 288 288 287 287 285 283 287 286 291 295 297 297 297 297 298 299 300 301 301 301 301 302 302 302 304 304 305 306 307 308 309 310 310 310 309 309 309 309 310 309 310 310 310 310 310 310 311 311 312 313 315 316 319 322 322 322 322 321 321 321 322 322 322 323 322 322 323 323 323
288 289 299 296 295 302 305 304 303 302 302 298 290 295 301 301 299 291 284 285 284 280 282 287 284 284 286 283 297 296 294 296 297 299 301 301 302 301 301 302 304 305 305 305 306 308 309 309 308 309 309 310 309 309 308 309 309 309 310 309 309 309 309 309 309 310 311 313 315 317 320 321 322 322 322 321 321 321 321 321 322 322 321 322 322 323
296 286 293 298 298 300 304 303 299 303 303 298 295 304 294 285 285 287 285 280 279 279 281 285 285 286 289 288 290 291 294 295 297 298 299 299 300 301 301 303 303 305 305 306 307 307 307 306 306 307 307 307 307 307 306 306 306 306 307 307 308 308 308 308 310 310 311 312 315 318 318 319 320 321 321 321 321 320 321 320 320 321 321 321 321 322
296 287 289 298 297 299 300 298 288 294 299 300 300 297 299 294 290 287 286 287 286 280 281 281 284 282 290 291 294 293 294 296 297 297 298 300 301 301 302 303 303 304 305 307 306 306 306 306 306 306 306 307 306 304 304 304 303 304 304 305 305 306 306 306 307 308 309 311 313 316 316 317 319 320 321 321 321 321 320 320 320 320 320 321 321 322
291 295 285 291 299 298 290 295 292 294 291 292 292 291 292 289 295 293 291 288 284 282 282 280 280 283 290 295 294 295 296 296 298 297 298 299 300 301 301 302 303 305 307 306 305 305 304 305 306 305 306 306 304 303 302 303 303 303 303 303 303 304 304 305 306 306 307 308 311 311 313 316 317 318 320 320 320 321 321 320 319 320 321 319 321 320
288 288 286 289 291 290 292 299 298 298 297 295 293 291 293 289 287 284 282 291 288 285 281 282 279 286 293 298 297 297 299 298 298 299 300 300 300 300 301 302 305 305 306 306 304 303 303 304 304 304 303 302 302 303 303 303 303 302 303 302 302 302 303 303 304 305 306 306 308 309 311 314 315 318 317 319 319 319 319 319 319 320 319 320 320 320
295 292 289 287 289 291 295 298 300 301 300 298 296 293 296 293 291 287 281 284 287 287 287 285 282 283 294 296 297 298 298 299 299 300 300 300 300 300 304 304 304 304 305 306 304 303 302 302 302 303 302 301 303 303 303 303 303 303 302 302 302 302 302 302 303 304 305 306 307 309 311 312 314 315 315 317 317 316 317 318 318 318 319 319 318 319
296 287 286 285 289 291 294 297 298 299 300 296 296 297 295 290 292 290 288 288 286 286 285 284 282 286 296 296 296 297 297 298 298 299 299 299 300 303 303 303 304 304 306 305 304 303 301 300 301 302 302 303 303 304 304 304 303 302 302 302 301 301 301 301 302 303 304 305 307 307 309 310 311 311 312 313 316 314 314 316 316 317 317 318 317 318
290 287 289 284 284 285 287 289 291 294 297 294 293 295 296 296 294 292 289 287 285 286 287 284 279 285 295 297 295 296 295 296 297 298 299 300 300 302 304 304 303 304 304 305 304 303 301 299 300 301 302 303 304 304 304 304 304 303 302 302 302 301 301 301 301 301 301 302 302 303 304 305 306 307 307 309 309 309 309 311 314 316 316 315 316 317
292 290 289 282 279 278 278 279 281 284 288 293 296 295 296 295 294 292 287 288 284 287 289 285 284 291 295 296 296 295 295 296 297 298 298 299 300 303 303 303 304 303 303 302 302 302 302 301 300 300 301 302 303 304 305 304 303 302 302 302 302 301 300 299 299 299 299 298 299 299 300 301 302 304 304 305 306 307 308 311 311 313 315 315 317 314
289 292 291 288 286 284 287 288 292 294 291 289 292 294 294 295 296 294 291 288 284 287 287 288 289 289 291 294 295 294 295 295 297 297 298 298 300 301 301 303 303 304 303 302 301 302 302 302 301 301 302 303 302 303 304 303 303 302 301 301 301 299 298 298 298 297 297 297 297 297 298 299 300 302 303 303 303 304 305 306 306 307 308 307 308 308
288 288 289 290 289 291 292 284 292 294 290 292 291 292 294 294 295 292 289 286 292 288 284 291 293 289 291 295 295 295 295 296 297 297 297 298 300 302 303 303 302 303 302 301 301 301 301 302 302 302 303 303 303 304 303 301 301 301 301 300 300 298 299 300 298 296 296 296 296 296 296 297 298 300 301 301 301 302 302 302 302 303 304 303 305 305
289 286 290 290 289 290 292 291 292 292 291 293 293 293 292 294 294 291 290 293 293 287 285 292 293 290 293 296 297 297 297 297 297 298 298 298 298 299 299 300 300 300 300 299 299 300 300 302 305 305 305 305 302 300 300 300 300 299 298 300 298 297 298 297 296 296 296 296 296 296 296 297 298 300 298 298 298 298 298 299 299 300 301 301 304 308
291 287 290 291 289 290 292 292 293 290 290 291 291 292 294 293 293 294 293 294 294 291 292 292 292 293 296 297 298 299 299 298 297 298 298 298 298 297 297 297 297 298 298 299 300 301 302 303 304 304 304 302 301 301 301 300 300 299 299 299 299 297 297 296 295 295 295 295 295 295 296 298 298 298 298 297 297 296 295 296 296 296 297 298 298 299
291 285 292 291 288 288 290 292 293 292 290 288 290 291 292 294 294 294 294 294 294 293 293 291 289 289 296 298 298 298 297 297 296 297 298 298 298 297 297 297 297 299 299 300 301 300 301 303 304 304 302 300 301 301 301 301 301 300 298 297 297 298 297 296 295 295 294 294 294 295 296 296 296 296 296 295 295 295 295 295 295 295 295 295 295 297
292 286 291 288 285 285 290 290 290 292 290 289 288 290 290 291 290 292 291 294 292 290 292 291 288 288 295 298 298 298 298 297 296 295 296 299 300 299 297 298 298 299 299 300 300 300 301 303 304 303 300 300 299 298 297 298 297 297 297 297 297 296 295 295 295 295 294 294 295 295 296 295 294 294 292 293 293 292 292 292 292 292 293 293 293 294
289 287 286 285 283 283 288 289 289 289 287 284 286 289 290 292 293 294 295 295 294 294 289 287 288 295 297 296 297 297 298 298 297 297 297 298 299 299 299 299 299 299 300 300 300 300 302 303 302 302 300 298 298 297 297 296 295 295 295 295 296 295 294 295 295 295 295 294 295 294 295 295 295 293 292 292 292 291 291 291 290 290 290 291 291 289
290 288 286 288 282 283 285 285 287 284 277 279 293 295 292 291 292 290 291 292 294 295 293 295 296 298 298 296 296 296 297 297 298 299 300 300 299 299 300 301 300 300 300 301 301 302 302 302 300 299 297 296 296 296 296 295 295 295 294 295 294 294 293 294 293 294 294 294 294 294 294 294 293 292 291 291 290 290 290 289 291 290 290 290 289 289
287 287 286 287 284 283 284 282 281 275 278 293 296 296 296 295 295 293 294 295 296 297 297 296 296 297 298 299 298 298 299 300 299 299 300 301 302 302 301 301 300 300 300 300 301 300 300 299 298 295 294 295 296 295 293 293 294 293 293 294 294 293 294 294 293 292 293 292 292 292 292 292 291 291 291 290 289 289 289 289 290 290 291 291 290 290
287 286 286 284 284 285 283 282 275 276 288 292 292 295 298 297 297 295 292 295 297 297 297 296 297 298 298 298 298 299 298 298 296 299 301 302 302 301 300 301 301 300 300 301 299 298 297 295 295 294 294 295 294 293 292 293 293 292 292 291 293 293 293 294 294 294 293 293 291 291 291 292 290 290 289 289 289 289 289 288 289 290 290 289 288 289
291 289 287 283 287 280 282 282 281 288 284 285 287 289 292 290 292 291 286 290 296 298 297 296 297 298 297 297 298 298 298 296 294 298 300 301 301 301 302 302 303 301 300 298 298 297 296 295 294 294 293 294 293 293 293 293 292 291 290 290 291 289 290 291 292 293 293 293 291 291 291 291 291 290 290 289 290 290 290 290 290 289 289 289 289 288
294 287 287 284 283 285 281 279 280 279 277 282 290 293 296 296 297 296 292 288 295 296 297 296 295 296 296 297 297 297 297 292 290 293 297 297 301 300 299 299 298 297 296 296 295 294 293 293 293 293 293 292 292 291 292 292 292 291 289 290 289 288 288 288 289 290 291 292 292 292 291 290 290 289 289 288 289 289 289 289 289 289 289 288 289 290
288 291 288 285 283 283 281 279 278 277 279 287 290 293 295 296 296 294 288 284 290 295 297 297 296 296 296 296 296 296 292 287 288 293 296 299 298 297 295 294 295 294 294 293 293 293 292 291 291 292 291 290 290 292 291 291 290 289 289 288 288 287 287 288 288 289 289 290 291 291 291 291 290 290 289 288 288 288 288 288 288 288 287 287 288 289
285 286 286 283 282 283 282 279 278 281 281 287 290 292 293 294 295 290 279 280 291 294 297 297 297 297 298 298 295 293 290 287 290 293 297 297 296 294 294 293 293 293 292 292 291 292 292 291 290 289 289 289 291 291 290 290 289 288 288 288 287 287 287 288 289 289 289 288 288 289 290 290 290 289 288 288 288 288 288 288 288 288 288 288 288 288
283 284 285 281 283 283 283 281 281 282 287 290 289 292 292 295 292 283 277 286 294 293 293 296 296 297 295 292 294 291 293 296 295 296 294 293 293 292 291 291 291 291 291 290 290 290 291 290 289 289 291 291 291 289 289 290 288 287 287 287 287 287 288 288 288 288 288 287 287 288 288 288 288 288 287 287 288 288 287 287 287 287 287 287 287 287
284 285 284 285 282 281 282 280 280 282 286 290 288 294 294 291 282 281 290 290 291 292 294 295 294 293 293 293 293 293 293 293 294 294 292 291 291 290 290 290 290 288 287 287 288 289 289 288 288 287 287 288 288 288 288 288 288 286 286 286 286 286 287 287 287 286 286 286 287 288 288 287 288 287 288 287 287 287 286 286 286 287 286 286 286 287
284 282 281 281 284 284 283 280 279 276 285 294 291 289 292 287 287 291 291 291 291 290 291 292 294 293 294 291 292 293 293 293 292 291 290 290 289 289 289 288 288 288 288 287 287 287 286 286 286 287 287 287 287 286 287 287 286 285 285 286 286 286 286 287 286 286 286 286 286 286 287 287 286 287 287 287 287 286 287 286 285 285 284 285 286 286
290 283 283 284 287 280 281 278 279 287 291 293 293 287 291 293 292 293 293 289 290 290 292 289 290 291 292 292 292 292 293 292 290 290 289 288 288 288 287 287 286 286 285 286 285 286 285 285 285 285 285 285 285 285 285 287 286 285 284 285 286 285 285 286 287 286 285 284 284 285 286 286 286 286 286 286 286 285 285 286 286 285 286 286 286 286
289 286 289 284 289 285 284 286 289 289 291 295 296 293 293 294 291 291 292 293 292 291 288 291 290 290 293 293 292 292 290 291 291 290 289 288 288 287 287 286 286 286 286 285 286 284 285 285 285 284 284 283 284 284 284 285 286 284 283 284 284 285 285 286 285 285 284 284 284 285 286 285 285 286 286 286 286 286 286 286 285 286 286 284 286 285
288 291 287 287 285 289 289 289 291 289 290 291 289 290 293 291 291 291 293 291 289 289 289 290 288 289 290 292 290 287 290 289 288 287 287 287 287 286 285 285 284 284 285 285 286 285 284 284 284 283 283 282 283 283 284 284 285 284 285 284 284 284 284 284 284 284 284 283 284 285 286 285 285 286 286 286 286 286 286 286 286 286 287 285 285 286
283 286 288 285 284 286 282 289 287 288 288 287 290 288 288 289 290 289 289 291 289 289 289 288 289 289 289 289 290 289 288 287 287 286 286 286 286 285 285 285 284 285 284 284 284 283 284 283 283 282 282 282 282 283 283 283 283 284 284 284 284 284 283 282 283 283 284 285 286 285 285 286 286 287 287 286 286 287 287 286 287 287 287 287 286 286
283 287 286 287 285 285 284 289 290 288 288 288 289 288 288 288 288 288 289 289 288 287 287 286 287 286 286 287 287 287 285 284 285 284 284 283 283 283 283 283 284 284 284 284 284 283 282 282 281 281 281 282 281 282 282 283 282 284 284 283 283 283 282 283 282 283 282 284 285 285 285 285 286 286 286 286 287 287 287 286 287 287 287 287 286 286
285 288 282 286 286 287 286 284 286 285 287 288 286 286 289 289 288 286 286 286 287 287 286 284 284 284 284 283 283 283 283 282 281 281 282 282 282 282 282 282 283 283 283 283 282 282 283 281 280 280 280 281 281 281 281 281 282 283 283 284 283 282 282 284 283 281 281 282 283 284 285 286 286 285 286 286 287 286 287 287 287 287 287 288 286 287
286 283 285 286 283 284 284 286 287 284 282 286 285 288 287 286 287 285 285 285 285 285 284 284 283 283 282 282 282 282 281 281 281 281 280 281 281 281 281 281 281 282 282 281 282 281 280 280 280 280 280 281 281 281 281 281 282 282 282 281 281 281 282 284 283 281 282 283 282 283 284 285 285 285 285 285 286 286 287 287 287 288 288 288 287 287
286 286 286 284 284 284 289 290 288 285 284 286 288 286 286 285 286 284 284 283 283 283 283 282 281 281 281 281 281 281 280 281 280 280 280 280 281 281 280 280 280 281 281 280 280 278 279 279 280 280 279 281 281 281 280 281 281 281 280 281 281 281 282 280 282 282 282 283 282 283 284 284 284 284 284 285 285 285 286 287 288 288 288 288 288 288
Wind_Speed
9 10 9 14 15 17 17 17 15 11 8 11 11 12 13 12 9 8 12 8 13 9 11 10 11 9 10 12 13 12 11 11 8 6 7 8 8 7 5 6 6 6 6 5 7 7 7 8 10 9 8 8 8 7 8 9 10 10 11 10 12 11 10 9 9 9 10 10 9 8 10 11 10 11 10 10 10 10 10 10 10 10 9 9 9 10
10 14 15 13 16 17 15 14 15 11 14 15 10 13 13 11 11 8 7 10 12 8 5 9 9 11 10 9 10 6 8 10 8 8 8 7 8 7 7 7 8 8 5 5 6 6 7 7 7 8 9 8 10 10 10 11 12 12 12 12 12 9 11 11 11 11 11 11 12 12 12 11 9 9 10 11 10 11 10 10 10 10 10 10 10 9
12 17 19 19 15 14 14 14 16 18 18 15 14 12 10 11 8 7 5 12 8 7 5 2 7 8 8 10 10 12 9 7 7 7 7 7 7 5 6 8 9 7 8 8 9 8 7 9 9 9 9 10 13 13 14 13 11 11 11 11 10 10 12 12 12 11 11 11 11 11 9 11 8 8 9 9 8 8 9 9 8 9 11 11 10 10
14 12 17 16 12 13 15 17 16 15 14 13 13 13 14 7 6 5 7 5 5 2 0 2 10 10 9 9 11 10 9 7 8 9 9 8 8 10 10 8 7 8 9 9 9 10 10 9 10 9 10 11 9 9 10 10 11 10 11 10 11 11 12 12 12 12 12 11 10 10 8 8 9 8 8 8 7 8 10 11 11 10 11 13 13 12
16 17 21 15 14 16 20 19 16 13 13 15 15 13 13 11 6 5 2 1 5 3 2 4 8 10 8 9 10 9 12 11 10 9 12 12 11 11 10 10 9 11 9 8 8 8 8 8 10 13 13 11 10 10 9 9 10 9 11 11 11 11 12 11 12 13 10 9 8 8 6 6 7 5 7 7 8 10 11 11 11 14 14 14 14 14
14 10 7 16 19 23 21 17 17 14 14 13 15 16 13 10 10 7 4 5 2 3 6 3 3 8 8 17 19 13 13 19 13 15 16 16 14 11 13 14 12 9 8 9 9 8 7 8 8 9 11 10 9 10 10 9 11 10 9 10 11 10 10 10 11 13 10 10 11 10 10 10 9 10 10 12 14 12 13 15 13 11 12 13 13 12
12 16 13 19 22 19 17 16 18 17 14 13 14 18 19 12 10 8 9 6 4 4 2 11 8 9 2 5 7 10 14 18 13 14 16 15 12 12 12 11 10 11 10 8 9 10 10 10 7 5 5 9 10 10 8 8 8 9 9 9 10 10 9 10 10 12 11 11 10 13 14 14 14 14 12 11 10 11 10 8 9 11 11 12 13 12
6 13 16 16 18 17 16 18 18 19 14 16 7 14 17 17 15 10 6 5 2 1 0 3 6 8 11 11 7 10 10 8 9 10 13 13 12 12 11 11 10 10 9 8 10 12 11 9 8 9 9 7 9 9 7 8 7 8 8 8 10 10 11 10 10 12 13 13 12 12 13 12 13 13 12 12 11 10 9 10 11 9 10 12 12 12
20 17 21 20 16 16 20 18 17 20 15 6 5 7 12 14 9 6 5 4 2 5 3 4 2 6 13 6 9 13 13 16 18 14 8 9 11 12 12 12 10 9 9 9 8 8 7 7 7 8 7 7 6 6 8 8 9 10 10 9 7 9 9 9 10 11 13 13 13 13 12 12 11 11 9 7 8 9 9 11 10 11 11 11 12 13
1 13 18 21 16 17 16 17 13 15 17 4 9 4 4 4 4 9 8 6 2 1 9 8 6 7 18 8 6 7 13 15 13 14 15 12 9 9 9 9 9 7 6 6 7 6 6 5 4 4 3 2 4 4 7 8 8 7 7 8 8 9 9 9 10 11 12 13 12 12 13 14 12 9 8 7 9 10 9 11 11 11 10 10 11 13
1 3 5 5 13 11 12 12 13 16 12 8 8 6 3 3 3 1 0 2 4 9 10 9 13 11 14 7 6 7 8 11 8 6 7 8 8 8 8 9 7 6 5 5 6 5 3 2 3 2 3 4 4 4 5 5 7 6 6 7 8 10 8 7 9 10 12 12 12 13 13 14 13 11 10 9 10 8 8 11 10 10 10 10 11 10
4 2 2 2 1 2 5 10 7 2 1 10 4 6 7 4 5 5 2 3 7 9 9 16 15 15 13 7 3 5 3 2 6 7 5 5 5 8 9 6 5 6 6 6 5 3 2 2 2 2 4 4 5 3 5 5 5 5 6 6 7 8 8 8 8 9 12 12 13 13 13 12 12 11 10 12 12 11 10 10 10 8 8 9 9 9
13 10 2 2 3 7 3 7 1 5 3 8 9 9 12 4 5 8 5 9 9 11 7 11 10 10 18 17 1 0 3 2 2 2 1 5 8 9 5 4 4 4 2 3 3 3 2 4 4 5 5 5 5 6 6 6 6 6 6 7 8 10 9 9 9 9 10 11 12 12 12 11 10 10 11 11 11 10 10 9 8 8 9 8 8 10
11 11 12 6 1 5 10 10 4 2 8 6 10 12 11 10 8 12 10 5 5 4 5 0 2 10 2 13 16 19 4 3 3 2 3 3 4 5 3 3 4 4 4 4 3 4 5 6 5 5 5 6 6 6 7 7 7 6 7 8 9 11 8 7 8 10 10 10 10 9 10 10 9 10 10 10 10 10 9 8 8 8 9 9 11 10
9 14 13 10 6 9 12 14 16 14 17 16 12 18 17 14 9 13 9 13 10 6 6 8 4 5 8 7 6 14 17 13 7 8 6 5 5 5 4 3 3 4 4 5 5 6 7 6 5 5 6 5 5 5 5 4 5 5 6 6 8 9 7 7 9 8 10 9 8 9 10 10 9 9 9 9 9 9 8 8 8 8 8 8 8 9
18 11 7 24 13 17 16 15 10 6 4 6 5 2 10 15 2 11 4 6 8 6 6 7 7 3 8 5 4 4 7 12 14 10 6 5 7 7 7 7 5 5 5 5 5 5 4 4 4 3 2 1 2 2 3 4 4 5 6 6 7 8 7 7 8 8 9 10 9 9 10 11 10 8 8 8 8 9 8 8 8 8 8 7 7 7
6 14 6 13 16 15 19 16 8 12 12 9 7 13 12 4 11 4 4 2 2 6 10 3 3 8 8 13 6 2 1 6 10 12 10 12 12 12 12 8 5 4 5 3 3 2 3 3 1 0 1 1 1 1 2 4 5 5 6 5 6 7 5 5 6 7 6 7 7 8 8 8 8 9 9 10 9 8 6 7 7 7 7 6 7 6
10 8 9 16 19 16 17 16 15 17 6 7 12 10 4 8 5 4 9 4 6 5 4 8 10 4 7 11 10 11 6 6 9 11 15 15 15 14 11 5 5 5 4 4 3 2 2 1 0 0 1 1 1 2 2 3 3 3 4 5 5 5 6 5 5 6 6 6 7 7 7 8 9 9 9 8 7 6 6 7 7 5 6 7 6 6
6 5 4 13 19 16 13 13 11 12 0 7 6 6 11 3 5 2 1 10 7 8 4 10 10 10 11 11 1 9 13 8 7 9 9 10 11 9 6 6 6 5 4 3 2 2 1 1 1 1 1 1 1 3 3 4 4 4 4 4 4 5 5 5 4 5 6 5 5 5 6 7 7 7 7 6 6 6 6 7 7 7 7 5 6 6
6 8 1 8 14 10 10 14 15 14 3 3 5 6 1 2 10 10 10 1 5 7 4 11 8 11 7 7 11 7 11 12 12 11 10 12 10 8 8 9 6 6 5 4 5 2 1 0 1 0 0 0 2 4 4 4 3 3 4 4 4 4 4 4 5 4 4 5 4 4 4 5 5 5 6 6 6 7 7 7 6 6 6 7 6 6
6 4 7 4 7 12 11 9 14 17 17 7 5 5 2 4 1 4 4 10 5 5 10 6 11 4 8 5 8 9 10 9 13 12 12 11 10 10 8 7 6 5 6 6 5 3 1 0 0 0 0 1 2 3 3 2 2 3 3 4 4 4 4 4 5 5 5 4 4 4 5 5 5 5 5 6 6 7 7 6 6 6 6 5 7 6
3 4 13 5 9 12 8 12 19 20 19 17 18 18 19 16 12 13 13 4 7 7 6 8 15 5 3 9 13 14 11 10 12 17 14 12 9 5 4 5 7 6 6 6 5 5 2 1 1 1 1 2 2 2 1 0 0 1 1 3 3 3 4 4 4 4 4 4 4 4 4 5 4 5 4 5 6 7 6 5 6 6 5 7 7 6
5 1 7 10 8 11 6 2 3 8 12 14 14 14 13 11 7 9 13 10 4 9 5 7 7 8 2 4 2 2 6 11 9 12 12 8 8 5 6 7 6 6 6 6 6 5 5 3 3 2 2 3 2 2 1 0 0 1 1 1 2 2 4 4 4 4 3 4 5 5 5 4 4 5 5 6 5 6 6 6 6 6 7 7 7 7
10 3 5 2 3 3 1 0 2 1 6 11 11 7 7 12 13 13 11 4 8 6 8 7 10 6 0 0 2 4 4 2 4 8 7 7 6 8 8 8 7 5 3 5 5 5 5 4 1 2 2 3 3 1 1 0 0 1 1 1 1 2 3 3 3 3 3 4 4 4 3 4 4 4 5 6 6 6 6 6 6 6 7 7 7 8
9 4 9 6 3 0 3 2 1 1 5 10 12 14 14 12 12 3 4 3 6 10 12 10 16 8 10 1 1 2 5 5 5 5 9 8 6 7 7 6 5 5 5 5 6 7 6 5 2 2 3 3 2 1 0 0 0 1 1 1 1 1 2 2 2 2 3 2 3 4 4 4 4 4 5 5 4 5 5 5 5 6 6 7 7 7
14 8 14 14 16 14 14 13 13 11 12 6 9 16 16 17 17 9 14 7 13 10 14 12 11 13 7 4 4 2 3 6 4 4 5 6 6 8 7 6 6 5 4 4 5 3 2 3 4 4 4 4 4 1 0 0 0 1 1 1 1 0 1 2 1 1 2 2 2 3 4 4 4 4 4 4 4 5 5 5 5 7 6 6 7 6
4 6 12 14 15 18 12 2 2 3 7 14 13 16 19 20 21 20 11 13 16 8 13 12 12 11 12 6 8 5 3 4 3 2 4 3 3 5 6 6 6 7 7 5 3 2 0 1 5 6 6 6 4 1 1 1 1 1 1 1 1 1 0 0 0 1 1 2 2 2 3 3 3 3 3 3 4 3 3 4 4 4 5 5 5 5
2 9 11 10 14 9 2 5 3 11 14 17 20 22 20 21 20 19 16 15 10 11 17 9 14 12 15 13 7 5 4 3 2 3 4 5 6 5 5 4 3 1 2 2 1 1 2 4 6 6 7 5 3 1 1 1 1 1 1 1 1 1 0 0 0 1 2 2 2 2 3 3 2 1 1 1 1 2 2 3 4 4 4 3 4 4
11 10 15 15 19 17 9 6 8 6 7 11 16 18 22 23 21 22 19 17 15 16 16 16 16 14 18 15 8 4 3 4 3 2 2 4 4 2 2 2 3 4 4 4 5 4 4 4 6 4 1 1 2 3 1 1 1 3 3 1 3 2 0 0 0 1 2 1 1 2 2 2 1 0 1 2 2 3 4 4 4 4 4 4 5 5
3 10 13 16 17 17 15 8 9 10 8 9 10 10 12 16 20 21 20 20 18 11 10 5 8 19 17 13 7 3 1 1 1 1 3 2 1 2 4 4 5 5 6 5 2 2 2 2 2 1 1 2 4 1 0 1 2 2 1 2 1 2 0 0 1 1 1 1 2 2 2 1 1 1 1 1 2 3 3 3 4 4 4 4 4 4
6 6 12 11 12 16 18 15 11 12 10 11 13 14 14 13 15 21 19 17 15 11 6 7 9 10 10 6 2 2 3 4 4 5 4 4 3 4 4 5 6 6 4 2 2 3 4 3 1 0 2 4 2 2 3 2 1 1 1 2 1 1 1 0 1 1 1 2 3 2 1 1 2 2 2 3 3 3 3 4 4 3 4 4 4 5
7 3 5 7 11 12 13 18 19 16 16 16 16 17 15 15 15 12 14 14 15 15 12 11 8 10 13 11 4 6 8 9 10 6 5 6 8 7 6 7 7 6 5 5 5 5 5 2 1 1 4 3 4 5 3 2 2 2 3 2 2 2 2 1 1 1 2 3 3 2 1 1 1 2 3 3 4 4 4 4 4 4 4 4 5 5
7 5 7 6 8 8 9 14 16 16 12 16 18 16 15 15 13 11 12 10 12 10 10 10 11 14 11 6 8 16 19 18 12 9 9 10 10 8 9 9 9 8 6 6 6 5 3 2 2 5 4 5 4 4 2 2 2 2 3 4 3 2 2 1 1 1 1 1 1 2 1 1 2 3 3 4 4 3 3 3 4 4 5 6 6 5
9 9 8 4 8 7 8 7 9 13 20 14 7 15 21 20 21 20 19 21 21 18 14 14 17 16 12 12 18 20 18 16 15 12 9 10 10 9 10 12 10 8 6 6 6 6 3 5 6 6 5 4 3 3 2 3 2 1 2 2 3 2 3 2 2 1 1 1 1 1 2 1 2 3 4 4 4 4 4 4 5 5 5 5 5 5
10 8 8 3 4 8 6 5 8 19 13 4 11 17 21 23 23 23 20 22 21 20 20 17 17 17 20 19 19 19 17 13 9 8 10 12 13 12 12 11 8 7 7 6 6 3 6 7 6 5 5 3 2 3 4 2 2 1 2 1 1 1 2 3 4 4 3 3 3 4 4 4 4 4 4 5 5 5 5 5 5 5 6 6 6 7
10 10 4 3 2 2 5 8 11 6 6 10 10 13 17 20 16 14 17 16 17 20 22 23 22 22 19 14 12 13 16 15 6 7 11 11 11 9 7 6 6 7 7 6 6 7 7 7 7 6 5 2 4 5 4 1 1 2 2 2 1 1 2 2 2 3 4 5 5 5 5 5 5 4 5 5 5 5 5 5 5 6 6 4 5 6
11 8 7 7 5 10 7 10 11 4 7 4 3 6 11 11 11 16 15 20 23 21 22 20 19 17 13 13 16 17 16 6 5 8 10 11 7 6 7 8 9 7 7 5 8 7 6 6 6 5 4 2 4 5 2 1 1 1 1 1 1 2 1 2 3 3 3 3 4 4 5 5 5 5 5 5 6 6 6 7 7 5 4 6 6 7
11 11 6 10 7 10 10 10 6 4 13 5 4 5 14 16 20 19 16 14 11 14 13 15 18 19 20 20 20 18 10 4 5 8 7 4 5 4 3 6 6 7 7 7 6 6 5 5 4 3 3 4 5 4 2 1 0 0 1 1 1 2 3 3 3 2 2 2 3 3 3 3 3 4 5 5 6 7 7 7 6 6 5 6 8 9
1 4 6 11 6 7 11 11 7 8 5 8 13 13 13 13 12 7 8 14 4 12 17 20 22 22 22 19 18 12 6 7 8 9 4 7 6 8 8 6 7 7 7 7 8 7 5 4 4 3 3 4 3 1 1 0 0 1 1 1 2 2 2 3 2 3 3 3 2 3 2 2 2 3 3 4 5 5 6 7 7 7 5 6 6 8
8 7 7 9 10 8 7 9 11 5 6 10 10 9 8 6 7 6 14 12 9 19 21 22 21 18 17 15 8 6 8 8 9 7 6 8 9 7 11 12 10 8 7 6 5 5 5 4 4 4 3 2 1 1 0 0 1 1 1 2 1 2 2 2 3 2 2 2 3 2 2 2 2 3 4 4 5 4 5 5 6 6 6 6 6 7
7 6 9 12 12 13 13 8 3 4 2 6 9 9 9 6 8 13 17 13 16 12 6 11 16 16 9 5 8 8 8 9 8 7 7 10 11 7 6 6 7 8 8 6 5 5 5 4 4 3 1 0 0 1 1 1 1 1 1 1 2 3 3 3 4 4 4 4 3 4 4 4 3 4 4 4 4 4 4 4 5 5 5 7 6 6
6 6 4 8 11 11 10 12 10 5 4 5 4 10 9 9 13 18 13 1 9 9 12 12 7 6 7 8 7 8 5 5 11 11 10 8 10 9 8 8 7 6 5 5 6 5 5 4 2 2 1 1 0 1 1 1 0 1 1 1 2 4 3 3 4 4 4 4 5 5 6 6 6 5 5 5 4 4 5 4 4 5 5 6 6 7
15 12 13 13 10 8 7 8 8 9 7 16 8 6 8 14 11 7 5 1 3 6 8 8 9 7 9 6 5 9 9 9 11 11 10 10 11 10 9 8 8 7 5 4 3 3 5 4 2 1 0 1 1 2 1 1 0 1 1 2 5 4 3 3 3 2 3 4 5 5 6 7 7 8 6 7 6 6 7 5 5 5 4 5 5 6
7 8 6 8 7 10 12 11 10 15 13 10 15 12 12 11 2 11 7 5 1 6 8 5 2 6 7 11 11 10 12 11 7 10 10 8 8 7 6 6 6 6 5 4 4 5 4 3 2 1 0 0 1 2 2 0 2 2 1 5 6 4 3 3 2 2 3 3 4 5 6 6 6 7 6 7 7 6 7 8 6 5 4 5 5 7
9 10 12 15 13 12 11 12 4 1 4 14 17 6 4 5 3 3 6 7 7 3 3 8 6 6 12 14 14 15 10 11 14 12 13 10 9 8 8 7 6 6 5 4 3 3 2 1 0 1 1 2 2 3 2 1 1 3 3 4 3 4 4 3 2 2 3 3 4 4 5 5 5 6 6 6 6 7 8 7 6 8 5 4 6 6
4 13 2 2 3 3 3 2 0 3 2 2 2 1 6 5 2 6 9 6 1 4 4 9 5 7 7 12 13 6 11 10 11 8 8 8 8 6 6 5 5 4 3 2 0 1 1 1 0 0 1 3 2 2 3 4 2 3 5 4 4 4 3 3 3 4 4 3 3 4 5 5 5 5 6 6 6 6 6 7 7 7 8 5 6 7
3 3 8 6 1 8 8 6 7 6 2 4 4 3 4 4 3 4 6 7 5 8 8 6 9 7 8 7 12 11 9 8 10 8 7 6 7 6 6 6 4 4 4 3 2 1 0 0 1 1 1 1 3 3 4 4 4 4 5 5 5 5 4 4 4 4 4 5 5 5 6 6 6 6 5 5 6 5 6 6 6 7 8 6 7 7
6 3 6 11 6 12 8 10 9 3 4 5 7 6 5 4 5 4 6 7 9 8 8 7 9 9 7 9 8 12 9 7 8 7 6 5 6 5 5 4 2 1 0 1 0 1 1 1 2 3 3 2 3 3 3 3 4 5 5 5 5 5 5 5 5 5 4 5 5 5 5 6 7 8 7 6 6 7 6 6 6 8 9 8 7 8
1 8 4 7 10 7 2 3 4 5 6 6 5 4 8 9 9 7 10 11 12 13 10 9 7 7 7 9 8 9 9 6 6 7 7 5 5 5 3 3 1 0 1 1 2 1 1 2 2 3 4 5 4 4 4 4 4 5 5 5 5 5 5 5 5 4 4 4 4 5 4 5 6 6 7 7 6 6 7 7 7 8 10 8 7 8
7 8 4 8 9 10 12 11 10 8 5 5 4 9 8 7 13 11 10 10 11 13 11 13 8 7 8 7 8 8 9 7 6 6 5 5 4 4 3 2 1 0 1 1 1 1 1 1 2 3 3 4 4 4 4 5 5 5 5 5 5 4 5 6 5 4 5 4 5 6 7 7 7 7 7 7 8 9 8 9 12 11 9 11 8 15
9 9 9 10 11 13 13 12 5 4 4 4 8 5 7 6 13 13 12 11 8 7 9 13 12 9 7 6 6 7 6 6 5 4 3 3 2 3 3 2 1 1 1 1 1 3 2 3 2 2 2 4 4 4 5 5 5 5 5 5 5 4 5 5 5 5 5 5 5 6 7 7 8 7 7 7 8 8 10 13 8 13 17 17 16 15
Wind_Direction
147 181 191 205 208 204 205 207 215 214 228 229 228 246 236 231 235 229 234 180 193 200 216 216 230 232 225 227 234 233 239 246 241 225 212 217 226 225 230 237 238 239 235 213 213 209 205 197 195 191 184 187 191 201 196 195 194 188 188 185 192 192 186 180 184 186 186 190 194 201 203 208 204 204 202 206 206 205 205 205 204 204 208 209 204 207
176 205 212 208 205 199 205 206 214 219 223 232 239 235 242 242 243 230 237 138 190 203 217 214 235 240 247 246 247 232 229 234 229 236 237 230 221 210 213 229 233 235 237 233 233 225 208 207 197 185 187 184 186 201 200 201 196 195 191 193 195 181 186 190 190 191 191 193 194 193 201 201 204 202 202 208 206 209 208 204 200 200 203 210 212 209
205 210 211 206 202 205 212 209 210 212 218 222 230 243 256 243 250 244 231 150 192 203 233 221 236 239 240 245 247 250 241 242 236 234 240 241 250 246 220 221 227 225 227 222 222 219 212 207 200 189 194 199 197 193 198 203 195 195 195 198 191 186 186 195 193 190 197 197 198 195 200 198 204 209 208 209 206 205 209 212 205 199 201 205 213 212
207 225 227 211 200 202 218 218 213 216 223 221 222 231 237 247 228 219 233 156 143 160 135 238 262 262 267 261 258 258 252 241 239 243 248 242 246 247 250 243 231 228 230 227 220 220 217 208 200 196 202 206 206 205 204 197 197 196 200 198 191 192 191 194 196 196 199 199 198 200 196 196 198 200 202 203 193 196 204 210 208 206 199 200 206 207
206 203 207 197 200 206 212 212 210 211 222 222 227 228 232 232 227 221 197 160 139 196 252 309 291 280 262 263 256 251 258 251 241 241 244 244 240 242 247 249 237 237 231 229 229 226 219 214 201 204 208 207 205 210 204 198 196 201 200 198 194 195 195 195 196 198 195 187 191 194 196 185 199 206 190 189 204 202 203 206 207 212 202 200 202 203
230 225 132 190 202 208 212 209 207 206 224 223 222 224 229 229 237 213 180 157 198 243 181 170 297 264 226 232 234 223 228 246 234 237 236 237 238 237 240 243 244 243 234 234 237 235 229 222 222 206 210 206 211 211 208 199 198 198 198 196 198 200 200 198 195 196 192 192 188 184 188 195 196 205 196 200 202 200 202 207 209 208 205 205 205 204
218 204 193 194 205 210 211 215 211 205 222 223 216 212 227 231 230 218 214 183 208 202 199 180 218 272 136 273 234 222 222 234 239 224 234 235 236 237 238 238 239 235 238 238 241 241 241 241 244 251 208 206 212 214 199 201 205 201 200 197 196 198 203 200 195 190 193 199 198 196 197 198 199 203 211 207 203 203 209 204 205 208 205 206 206 206
178 202 202 207 206 209 209 216 209 204 214 231 201 208 209 219 216 224 239 225 245 134 329 212 195 268 269 232 244 270 276 269 252 232 220 222 221 227 232 234 233 229 226 222 227 234 233 233 228 239 247 230 211 207 192 199 200 204 207 201 200 200 202 201 195 191 192 199 202 204 206 206 210 209 211 202 205 203 197 200 205 202 206 204 205 206
196 195 201 205 201 204 215 213 202 203 211 230 209 178 211 206 217 240 245 244 172 89 251 204 233 279 258 244 200 216 237 239 243 248 238 216 214 219 221 226 226 223 220 214 221 228 220 215 216 217 222 225 224 179 188 190 196 204 209 208 202 203 203 205 196 196 197 200 202 205 208 212 217 215 216 201 207 206 197 202 200 201 204 203 204 206
226 206 211 208 199 211 214 214 203 200 217 165 110 125 188 169 228 234 238 232 14 100 227 208 177 241 270 239 221 207 218 231 233 229 234 229 221 217 218 218 224 227 226 228 223 216 212 211 210 210 202 219 221 204 186 195 195 199 201 204 206 212 206 203 202 199 200 202 204 211 214 215 213 209 213 201 207 207 197 204 198 198 200 202 202 206
163 99 55 211 217 217 217 213 207 207 216 124 129 139 97 118 167 254 141 87 76 227 226 213 212 213 271 247 203 196 220 217 220 225 223 223 221 228 220 217 217 218 223 230 225 217 199 208 223 207 215 221 225 213 196 186 186 190 194 204 209 220 216 209 206 200 205 204 206 214 216 217 218 207 203 207 218 208 201 207 201 194 199 197 204 201
256 44 128 214 55 280 236 211 209 247 245 160 180 146 95 360 24 356 331 110 210 239 219 218 219 208 238 278 199 200 339 141 168 194 192 170 189 225 231 226 204 196 204 213 193 197 190 224 238 203 229 233 233 215 205 205 196 196 205 203 217 230 224 222 217 207 208 207 210 216 218 219 220 212 209 212 215 211 212 209 206 199 191 202 201 200
240 224 211 270 162 146 214 224 16 67 92 218 157 143 166 197 142 229 165 216 206 217 208 223 222 250 231 242 239 135 66 338 25 326 146 180 217 230 226 195 178 177 164 154 147 150 188 212 224 223 229 222 220 217 216 208 206 210 211 211 216 230 224 222 221 221 217 212 213 213 217 222 219 216 216 217 219 214 216 213 204 193 201 198 200 206
235 226 200 209 288 180 153 190 130 131 173 171 173 165 172 196 180 215 203 223 235 228 252 97 241 251 267 266 229 247 223 180 193 222 261 251 240 201 204 191 174 168 155 161 175 199 229 234 239 230 224 218 221 219 216 213 206 208 213 217 218 233 225 221 221 223 225 221 217 213 214 219 217 220 218 220 221 219 216 212 210 199 199 201 208 205
189 220 215 177 227 150 189 192 186 192 173 190 180 180 193 190 190 205 198 208 206 214 212 212 275 216 157 233 156 212 225 221 188 184 207 227 254 247 209 221 205 183 188 187 197 214 223 231 225 227 224 223 224 229 231 227 222 214 222 224 227 240 237 223 224 222 222 223 217 212 212 213 213 218 217 220 220 220 217 215 212 210 205 206 209 206
214 241 160 194 176 170 189 193 185 131 141 202 195 284 210 215 156 231 157 191 196 202 223 191 206 202 204 289 295 220 214 210 213 222 206 219 239 246 255 248 220 209 214 199 198 216 226 223 230 229 238 246 236 238 237 237 238 232 234 230 230 232 234 224 227 226 218 219 217 214 211 210 207 209 214 221 221 222 214 213 212 216 212 212 203 202
161 225 139 179 187 179 186 178 187 147 195 173 172 209 212 207 227 263 294 8 130 164 234 168 251 266 311 283 268 229 111 211 206 215 216 219 225 234 242 248 226 204 196 207 219 222 246 262 271 329 307 305 299 285 248 237 226 226 235 239 249 251 251 234 230 233 231 228 221 221 214 208 204 203 208 216 220 218 212 209 213 213 215 210 204 202
186 212 161 163 194 205 189 181 173 189 162 126 210 206 164 31 30 202 221 172 215 205 226 186 218 224 181 269 196 225 190 213 192 193 213 216 217 229 239 226 218 204 197 217 214 216 208 200 71 315 302 278 279 282 300 289 271 240 230 229 241 254 252 254 244 243 237 231 225 220 215 211 207 208 213 213 214 206 205 216 216 213 216 215 206 200
179 232 205 183 184 191 177 159 198 215 97 189 197 160 180 168 221 180 192 223 192 212 223 229 221 225 191 227 46 195 211 197 198 207 213 219 222 224 216 224 220 192 205 197 175 117 256 65 29 57 350 323 334 331 320 314 315 312 300 275 254 255 253 252 250 242 243 236 231 223 221 214 212 211 209 209 206 201 205 211 209 210 215 213 207 203
216 207 173 201 190 154 173 168 199 192 170 86 354 208 195 101 211 185 193 242 183 228 191 241 211 240 201 228 235 228 209 201 195 204 209 213 209 200 203 209 193 196 195 157 133 152 238 81 87 115 274 294 300 296 285 273 281 287 275 285 284 279 273 277 283 283 261 244 232 239 232 229 218 211 207 201 197 205 210 213 205 208 211 213 205 207
208 187 238 179 186 157 202 188 195 182 184 160 180 190 127 220 302 232 207 213 188 209 219 252 251 206 222 220 234 216 216 189 187 194 202 211 210 206 203 177 177 167 143 143 142 158 242 115 190 234 212 262 271 274 270 259 255 254 260 277 278 270 271 263 252 258 267 273 266 248 235 229 220 217 203 201 199 202 212 211 207 209 209 199 211 200
189 197 207 139 199 196 196 189 197 192 188 187 185 191 184 177 175 183 223 194 210 196 205 212 245 246 237 188 219 223 211 209 188 189 197 207 207 195 189 150 133 138 151 151 151 164 218 234 196 226 308 299 279 291 305 277 315 305 283 268 271 282 274 261 270 248 251 260 260 262 247 235 222 213 207 202 206 209 210 205 204 209 205 207 211 195
179 137 201 194 199 195 190 274 253 207 199 205 198 207 195 199 179 201 217 208 185 220 226 241 272 248 198 315 312 221 206 202 191 180 188 185 180 166 132 125 132 140 143 154 161 177 204 219 187 196 223 251 254 278 293 274 199 259 262 276 281 272 273 256 246 249 238 227 236 246 248 236 225 211 209 208 212 210 208 207 207 200 205 211 210 207
77 208 204 269 7 350 343 302 31 6 191 210 224 228 204 215 201 213 219 205 201 177 202 225 242 247 75 296 344 54 52 71 147 163 151 157 142 128 125 127 131 119 152 165 167 183 198 207 200 190 236 250 257 261 308 255 213 237 246 243 243 270 278 281 268 261 264 261 248 243 246 247 243 225 218 211 216 212 211 209 208 207 208 211 207 212
189 191 188 176 215 355 323 348 287 291 195 212 203 204 207 209 206 214 62 79 220 195 206 194 230 224 226 187 358 27 75 64 66 101 127 125 131 124 129 129 135 152 162 165 180 196 192 174 187 230 226 239 261 261 184 109 210 245 256 239 230 264 270 268 282 294 286 278 275 281 271 261 250 232 236 230 227 224 224 219 217 216 217 215 219 218
211 158 183 201 194 196 193 197 192 177 198 202 216 205 205 203 202 186 220 183 229 188 198 210 228 232 230 189 241 192 110 103 108 103 91 123 131 128 134 152 162 166 182 186 191 175 175 185 189 217 239 243 242 222 162 158 237 259 237 245 190 193 287 296 300 288 306 307 296 287 285 280 287 274 257 244 238 231 224 224 223 225 229 218 226 229
187 184 213 214 206 217 215 190 355 134 156 198 197 203 202 205 203 208 207 210 215 189 217 214 218 231 245 223 219 183 139 140 156 147 150 119 135 157 162 171 176 180 191 199 187 163 138 152 197 215 222 224 225 189 148 127 313 291 242 251 214 181 171 252 284 272 234 257 259 277 280 282 269 260 268 272 272 286 290 279 266 254 249 249 243 242
141 198 217 219 235 240 127 173 181 145 186 194 193 206 204 205 205 206 205 215 180 198 231 192 215 216 234 216 193 168 184 189 194 210 195 180 175 172 177 154 144 17 346 334 332 142 175 214 213 210 220 226 222 154 118 79 20 344 271 242 193 173 139 210 202 251 242 224 245 244 253 253 257 278 284 315 345 346 330 326 319 299 293 303 288 277
173 200 205 197 226 227 231 166 170 157 173 204 211 205 203 203 200 208 211 210 188 210 215 203 203 210 231 220 197 158 164 194 193 233 221 157 145 142 116 138 190 218 234 241 238 215 191 180 192 198 197 268 129 112 119 48 4 19 11 356 177 130 143 206 197 265 260 251 235 248 246 252 255 23 360 344 337 322 308 300 292 295 297 294 283 274
135 215 193 194 211 217 206 169 166 161 183 200 216 225 215 201 210 211 213 213 205 213 214 195 203 217 223 230 196 251 261 116 244 250 283 304 188 194 199 203 219 231 232 237 248 317 328 263 186 188 243 97 120 145 170 76 49 24 6 12 122 121 219 150 247 245 283 279 270 262 255 261 311 285 263 263 256 256 259 265 274 278 282 276 275 286
171 207 185 190 203 217 212 210 195 187 180 193 205 208 215 219 215 212 215 217 217 220 192 174 200 238 253 256 213 251 290 286 277 248 228 235 243 231 224 225 237 244 245 242 249 250 254 227 192 208 104 121 95 57 65 68 45 7 11 26 46 46 284 209 279 280 268 283 276 266 250 217 248 249 263 262 259 263 265 264 265 273 276 276 279 278
174 250 203 197 203 220 208 208 209 211 204 206 201 200 201 201 216 220 223 211 207 208 209 217 220 241 248 241 197 230 252 245 231 225 229 234 233 224 219 232 231 227 219 220 223 228 229 202 194 119 126 108 85 73 67 34 353 5 5 2 20 325 313 314 267 279 294 288 306 312 289 257 251 250 264 271 260 258 257 258 265 274 273 279 279 273
183 196 203 189 223 224 207 204 210 221 229 227 214 191 185 198 203 202 221 224 227 210 218 215 228 228 234 123 199 237 227 227 234 226 223 229 230 223 226 228 223 216 207 200 214 220 208 187 121 122 106 91 86 84 67 71 46 357 332 344 310 343 1 330 314 304 310 305 317 324 330 329 328 305 309 295 282 274 278 273 283 283 281 270 259 267
184 205 218 169 218 219 215 202 198 217 224 221 153 182 184 194 197 201 208 207 212 203 216 209 225 228 219 172 206 229 228 219 216 219 221 230 239 229 225 229 219 201 190 197 200 202 188 104 110 103 112 112 110 114 111 98 87 325 302 298 330 358 337 15 339 347 316 336 331 329 330 338 340 328 312 313 315 311 300 296 280 273 268 275 282 266
193 196 219 221 227 223 210 163 201 228 236 182 179 189 188 201 203 208 212 210 209 204 214 222 225 228 218 211 215 228 241 240 226 202 210 217 220 220 216 213 196 186 191 188 200 141 110 126 117 117 99 102 120 115 84 39 27 341 349 340 2 338 357 348 352 350 352 5 357 14 11 13 359 344 330 330 327 325 314 297 294 295 286 279 271 269
196 196 185 223 154 5 246 201 230 248 183 196 202 183 189 201 203 204 226 221 212 206 208 218 220 222 225 223 230 234 242 239 217 192 205 214 210 205 181 175 175 172 188 193 153 136 135 132 140 140 145 158 122 112 100 83 6 28 319 353 88 24 3 20 20 15 16 14 9 6 360 3 354 348 344 338 337 335 321 312 295 297 293 280 272 264
191 198 195 228 179 221 209 227 235 329 357 323 155 196 178 184 178 193 216 221 211 205 203 215 223 231 235 232 229 233 234 218 171 224 219 211 191 163 165 175 176 182 154 138 133 135 136 137 133 149 137 125 125 118 115 141 42 13 337 5 351 45 24 69 64 50 40 24 6 358 353 354 351 344 344 342 340 332 326 323 318 309 301 305 294 288
181 189 185 211 207 197 223 233 229 214 231 196 218 195 192 195 195 197 209 237 209 210 198 206 215 217 221 223 224 226 224 199 217 236 233 197 162 150 99 113 115 120 121 119 108 108 110 116 106 97 108 95 114 141 149 141 66 21 12 351 355 31 7 42 29 33 34 14 354 351 349 346 354 343 331 338 331 321 317 313 307 305 311 310 308 306
39 177 183 206 213 185 210 228 225 227 223 174 201 206 203 199 196 184 210 240 198 201 204 209 214 216 216 219 223 217 183 209 226 233 215 158 157 145 129 124 120 121 123 127 132 129 125 120 120 109 77 81 88 77 115 123 76 46 344 341 351 23 30 13 356 356 0 341 333 336 338 340 357 340 322 316 306 306 309 307 303 299 301 293 287 283
166 178 169 207 220 218 211 215 231 195 217 205 204 211 206 155 155 116 226 221 212 219 204 205 214 218 219 219 205 169 165 207 223 229 187 157 146 142 140 140 129 123 114 108 102 122 126 118 81 78 84 90 89 113 148 165 76 38 329 322 353 16 354 333 318 302 323 326 324 326 342 344 341 312 306 296 293 292 283 283 298 299 300 293 281 285
173 183 186 204 208 215 207 233 255 260 236 226 203 194 185 148 137 202 224 216 219 210 172 202 214 219 211 186 162 200 198 193 193 152 137 124 111 105 99 109 126 129 131 126 132 119 116 119 120 128 130 157 149 80 105 113 58 348 318 315 1 323 299 299 313 326 323 325 336 341 335 331 323 311 289 266 267 272 277 275 274 285 292 294 296 294
186 181 202 205 217 212 215 220 228 251 227 208 203 163 147 136 202 214 224 208 99 153 193 201 202 188 177 189 178 186 182 137 122 127 128 125 121 123 119 117 110 103 113 130 137 123 113 108 87 58 9 324 38 71 110 122 86 275 292 327 296 276 270 301 314 316 329 340 342 336 329 326 320 314 307 304 302 295 283 271 266 267 274 280 289 297
180 179 187 195 197 215 204 217 219 239 218 203 166 156 173 190 214 198 104 28 116 155 168 184 185 195 177 186 150 126 123 125 128 131 129 127 127 132 135 132 134 142 140 126 111 146 119 103 99 100 263 289 320 343 3 94 318 278 266 291 266 261 274 292 308 323 353 351 335 326 321 319 319 313 315 308 304 303 300 296 291 281 267 276 283 281
167 198 181 211 180 195 199 204 213 210 228 142 142 192 202 198 150 150 148 179 247 141 150 137 162 175 147 132 134 134 134 128 121 126 124 125 127 131 132 137 138 140 147 158 150 157 128 132 142 158 256 275 291 298 303 18 292 275 286 273 270 279 298 319 333 16 359 334 319 312 311 308 307 304 302 299 297 295 294 302 301 294 284 278 283 296
171 213 182 202 182 194 199 215 214 343 143 165 191 208 165 165 74 140 140 148 147 171 145 135 157 147 148 140 139 138 140 148 148 149 141 148 141 142 140 151 155 154 155 151 160 152 131 156 190 176 264 280 268 270 267 256 250 274 276 261 268 288 300 315 341 355 323 307 299 299 292 295 292 289 285 284 289 301 303 302 306 309 302 292 296 292
207 205 54 336 261 251 317 99 216 242 160 171 33 352 153 114 100 109 130 113 89 135 136 139 138 121 120 129 123 140 139 148 132 135 129 136 142 150 143 135 130 141 138 131 151 172 182 173 126 3 276 303 288 286 279 277 239 256 253 265 281 284 305 325 332 321 307 295 292 292 291 292 282 272 274 275 273 269 272 280 294 294 294 285 276 278
256 194 188 210 161 163 229 199 225 219 147 116 107 26 61 109 139 134 112 119 120 106 90 82 112 115 125 124 132 134 129 129 125 132 135 130 131 139 139 145 161 161 158 165 220 178 105 111 331 294 291 308 295 294 289 286 281 255 272 286 287 304 320 332 320 311 313 316 313 311 307 304 304 299 285 279 274 265 267 272 279 282 286 285 289 288
249 152 202 206 190 200 220 215 206 149 151 176 148 130 114 93 73 76 109 109 104 87 94 102 96 90 98 102 115 116 119 118 120 125 117 120 121 128 117 126 112 80 119 175 193 105 47 4 306 299 308 300 277 293 293 284 278 277 279 283 292 298 318 315 301 295 299 299 299 295 288 288 285 288 294 285 284 292 287 268 264 278 278 286 284 291
150 131 216 172 215 226 282 19 163 138 164 188 172 142 152 143 119 107 108 110 108 104 92 69 70 98 96 109 101 103 99 102 111 114 112 116 110 112 136 131 130 168 242 18 318 16 256 266 294 284 305 296 293 301 302 292 280 278 276 274 281 284 291 285 283 282 286 288 290 294 285 285 291 296 299 301 286 260 253 275 274 260 270 245 225 238
114 201 170 173 215 217 214 210 169 164 211 218 183 154 147 142 121 121 111 107 116 117 114 104 85 77 87 94 102 104 111 112 110 111 124 132 144 148 136 129 156 172 268 263 260 262 278 274 259 276 278 278 279 282 280 279 275 272 260 258 261 266 271 277 286 298 297 298 307 308 314 314 311 307 301 297 300 301 289 234 234 253 255 280 242 223
200 191 184 195 201 220 222 226 159 110 99 159 158 152 141 149 129 124 126 125 114 109 118 117 115 99 87 82 88 101 112 111 118 112 112 117 152 155 149 150 165 202 246 278 357 322 301 271 255 252 263 265 264 260 256 260 263 266 271 255 256 258 262 271 287 290 295 305 307 307 308 308 307 307 301 300 302 304 303 311 278 229 245 253 257 256